K5BV Weather Reports


Display with metric or nautical units.
time (UTC)temp
F
wind
direction
speed
MPH
gust
MPH
rain 1hr
in
rain 24hr
in
rain mn
in
humidity
%
barometer
mb
20260510104230 77 0 0.0 0.0 0.00 0.32 0.00 97 1011.8
20260510103230 77 0 0.0 0.0 0.00 0.33 0.00 97 1011.8
20260510102230 77 0 0.0 0.0 0.00 0.35 0.00 97 1011.7
20260510101230 77 0 0.0 0.0 0.00 0.35 0.00 97 1011.8
20260510100230 76 0 0.0 0.0 0.00 0.35 0.00 97 1011.8
20260510095230 77 0 0.0 0.0 0.00 0.35 0.00 97 1011.9
20260510094230 77 0 0.0 0.0 0.00 0.35 0.00 97 1011.9
20260510093230 77 0 0.0 0.0 0.00 0.35 0.00 97 1011.7
20260510092230 77 0 0.0 0.0 0.00 0.35 0.00 97 1011.6
20260510091230 76 0 0.0 0.0 0.00 0.35 0.00 97 1011.6
20260510090230 77 0 0.0 0.0 0.00 0.35 0.00 97 1011.4
20260510085231 77 0 0.0 0.0 0.00 0.35 0.00 96 1011.5
20260510084230 77 0 0.0 0.0 0.00 0.35 0.00 96 1011.6
20260510081232 77 0 0.0 0.0 0.00 0.35 0.00 96 1011.5
20260510080230 77 0 0.0 0.0 0.00 0.35 0.00 96 1011.8
20260510074230 77 0 0.0 0.0 0.00 0.35 0.00 95 1011.8
20260510073230 77 0 0.0 0.0 0.00 0.35 0.00 95 1011.7
20260510072231 77 0 0.0 0.0 0.00 0.35 0.00 94 1011.7
20260510071230 77 0 0.0 0.0 0.00 0.35 0.00 94 1011.8
20260510070230 77 0 0.0 0.0 0.00 0.35 0.00 93 1011.9
20260510065230 77 0 0.0 0.0 0.00 0.35 0.00 94 1012.0
20260510064231 77 0 0.0 0.0 0.00 0.35 0.00 95 1012.2
20260510063230 77 0 0.0 0.0 0.00 0.35 0.00 95 1011.9
20260510061230 77 0 0.0 0.0 0.00 0.35 0.00 96 1011.9
20260510060230 78 0 0.0 0.0 0.00 0.35 0.00 95 1012.1
20260510055230 78 0 0.0 0.0 0.00 0.35 0.00 95 1012.2
20260510054230 77 0 0.0 0.0 0.00 0.35 0.00 95 1012.2
20260510053230 78 0 0.0 0.0 0.00 0.35 0.00 94 1012.3
20260510052231 78 0 0.0 0.0 0.00 0.35 0.00 94 1012.4
20260510051230 78 0 0.0 0.0 0.00 0.35 0.00 93 1012.2
20260510050234 78 0 0.0 0.0 0.00 0.35 0.00 93 1012.0
20260510045230 78 0 0.0 0.0 0.00 0.35 0.35 93 1011.8
20260510044230 77 0 0.0 0.0 0.00 0.35 0.35 93 1011.3
20260510042230 78 0 0.0 0.0 0.00 0.35 0.35 92 1011.2
20260510041231 78 0 0.0 0.0 0.00 0.35 0.35 92 1011.2
20260510040229 78 0 0.0 0.0 0.00 0.35 0.35 91 1010.7
20260510035229 78 0 0.0 0.0 0.00 0.35 0.35 91 1010.9
20260510034230 78 0 0.0 0.0 0.00 0.35 0.35 90 1011.2
20260510033230 78 0 0.0 0.0 0.00 0.35 0.35 90 1011.1
20260510032230 78 0 0.0 0.0 0.00 0.35 0.35 89 1011.1
20260510031230 79 0 0.0 0.0 0.00 0.35 0.35 88 1011.1
20260510030229 79 0 0.0 0.0 0.00 0.35 0.35 88 1011.0
20260510025231 79 0 0.0 0.0 0.00 0.35 0.35 87 1011.0
20260510024231 79 0 0.0 0.0 0.00 0.35 0.35 85 1010.7
20260510023232 79 0 0.0 0.0 0.00 0.35 0.35 84 1010.7
20260510022229 79 0 0.0 0.0 0.00 0.35 0.35 83 1010.6
20260510021230 80 0 0.0 0.0 0.00 0.35 0.35 82 1010.5
20260510020231 80 0 0.0 0.0 0.00 0.35 0.35 79 1010.2
20260510014231 80 0 0.0 0.0 0.00 0.35 0.35 79 1009.9
20260510013230 80 0 0.0 0.0 0.00 0.35 0.35 78 1009.7
20260510012231 81 0 0.0 0.0 0.00 0.35 0.35 76 1009.5
20260510011232 81 0 0.0 0.0 0.00 0.35 0.35 76 1009.6
20260510005231 82 0 0.0 0.0 0.00 0.35 0.35 72 1009.6
20260510004231 84 0 0.0 0.0 0.00 0.35 0.35 67 1009.7
20260510003231 83 0 0.0 0.0 0.00 0.35 0.35 67 1009.7
20260510001231 83 0 0.0 0.0 0.00 0.35 0.35 70 1009.6
20260510000233 84 0 0.0 0.0 0.00 0.35 0.35 70 1009.6
20260509235231 84 0 0.0 0.0 0.00 0.35 0.35 71 1009.6
20260509234231 84 0 0.0 0.0 0.00 0.35 0.35 69 1009.6
20260509233231 84 0 0.0 0.0 0.00 0.35 0.35 69 1009.6
20260509232231 84 0 0.0 0.0 0.00 0.35 0.35 70 1009.6
20260509231231 84 0 0.0 0.0 0.00 0.35 0.35 69 1009.6
20260509230232 84 0 0.0 0.0 0.00 0.35 0.35 68 1009.8
20260509225231 84 0 0.0 0.0 0.00 0.35 0.35 67 1009.8
20260509224232 84 0 0.0 0.0 0.00 0.35 0.35 70 1009.7
20260509221231 85 0 0.0 0.0 0.00 0.35 0.35 71 1009.9
20260509220231 86 0 0.0 0.0 0.00 0.35 0.35 69 1009.8
20260509215231 86 0 0.0 0.0 0.00 0.35 0.35 70 1009.8
20260509213230 86 0 0.0 0.0 0.00 0.35 0.35 74 1009.8
20260509211232 85 0 0.0 0.0 0.00 0.35 0.35 74 1009.7
20260509210231 85 0 0.0 0.0 0.00 0.35 0.35 73 1009.8
20260509205231 84 0 0.0 0.0 0.00 0.35 0.35 75 1009.9
20260509204231 84 0 0.0 0.0 0.00 0.35 0.35 74 1009.8
20260509203231 83 0 0.0 0.0 0.00 0.35 0.35 76 1009.8
20260509202231 83 0 0.0 0.0 0.00 0.35 0.35 78 1009.8
20260509201231 83 0 0.0 0.0 0.00 0.35 0.35 77 1009.9
20260509200230 83 0 0.0 0.0 0.00 0.35 0.35 76 1009.9
20260509195230 84 0 0.0 0.0 0.00 0.35 0.35 76 1010.1
20260509194231 84 0 0.0 0.0 0.00 0.35 0.35 75 1010.1
20260509193230 85 0 0.0 0.0 0.00 0.35 0.35 73 1010.1
20260509191231 85 0 0.0 0.0 0.00 0.35 0.35 72 1010.2
20260509190231 85 0 0.0 0.0 0.00 0.35 0.35 72 1010.3
20260509185230 85 0 0.0 0.0 0.00 0.35 0.35 74 1010.2
20260509184230 85 0 0.0 0.0 0.00 0.35 0.35 74 1010.3
20260509183232 85 0 0.0 0.0 0.00 0.35 0.35 73 1010.3
20260509182231 84 0 0.0 0.0 0.00 0.35 0.35 74 1010.3
20260509181231 85 0 0.0 0.0 0.00 0.35 0.35 74 1010.5
20260509180231 84 0 0.0 0.0 0.00 0.35 0.35 76 1010.5
20260509175230 83 0 0.0 0.0 0.00 0.35 0.35 76 1010.3
20260509174231 83 0 0.0 0.0 0.00 0.35 0.35 76 1010.2
20260509173231 83 0 0.0 0.0 0.00 0.35 0.35 75 1010.3
20260509172231 82 0 0.0 0.0 0.00 0.35 0.35 72 1010.6
20260509171230 81 0 0.0 0.0 0.00 0.35 0.35 75 1010.5
20260509170241 82 0 0.0 0.0 0.00 0.35 0.35 75 1010.7
20260509163230 79 0 0.0 0.0 0.00 0.35 0.35 79 1011.2
20260509162231 78 0 0.0 0.0 0.00 0.35 0.35 82 1011.4
20260509161231 78 0 0.0 0.0 0.00 0.35 0.35 85 1011.5
20260509160231 77 0 0.0 0.0 0.00 0.35 0.35 85 1011.4
20260509155232 77 0 0.0 0.0 0.00 0.35 0.35 86 1011.0
20260509154230 76 0 0.0 0.0 0.00 0.35 0.35 88 1011.1
20260509151231 76 0 0.0 0.0 0.00 0.35 0.35 88 1010.4
20260509150231 76 0 0.0 0.0 0.00 0.35 0.35 88 1010.3
20260509145232 76 0 0.0 0.0 0.00 0.35 0.35 87 1010.0
20260509144231 76 0 0.0 0.0 0.00 0.35 0.35 86 1009.5
20260509143230 76 0 0.0 0.0 0.00 0.35 0.35 85 1009.4
20260509142231 75 0 0.0 0.0 0.00 0.35 0.35 87 1009.6
20260509141230 75 0 0.0 0.0 0.00 0.35 0.35 88 1009.9
20260509140231 75 0 0.0 0.0 0.00 0.35 0.35 88 1009.9
20260509135230 74 0 0.0 0.0 0.00 0.35 0.35 89 1009.9
20260509133231 73 0 0.0 0.0 0.01 0.35 0.35 94 1009.5
20260509132231 74 0 0.0 0.0 0.01 0.35 0.35 96 1009.8
20260509131241 73 0 0.0 0.0 0.01 0.35 0.35 96 1009.9
20260509130245 73 0 0.0 0.0 0.03 0.35 0.35 96 1010.1
20260509125448 74 0 0.0 0.0 0.06 0.35 0.35 96 1011.2
20260509124230 75 0 0.0 0.0 0.06 0.34 0.34 96 1011.8
20260509123231 75 0 0.0 0.0 0.08 0.34 0.34 96 1011.4
20260509122233 73 0 0.0 0.0 0.10 0.34 0.34 96 1010.9
20260509121232 74 0 0.0 0.0 0.10 0.34 0.34 97 1010.0
20260509120233 73 0 0.0 0.0 0.19 0.33 0.33 97 1012.0
20260509115232 72 0 0.0 0.0 0.20 0.31 0.31 97 1013.1
20260509114232 73 0 0.0 0.0 0.21 0.29 0.29 97 1012.9
20260509113232 73 0 0.0 0.0 0.24 0.28 0.28 97 1012.9
20260509112232 73 0 0.0 0.0 0.23 0.26 0.26 97 1012.9
20260509111232 72 0 0.0 0.0 0.22 0.24 0.24 97 1013.2
20260509110232 77 0 0.0 0.0 0.14 0.14 0.14 98 1013.1
20260509105233 77 0 0.0 0.0 0.11 0.11 0.11 97 1012.8